Tracking 18843 objects as of 20-November-2017
HD Live streaming from Space Station
objects crossing your sky now

LINK

Track LINK now!
10-day predictions
LINK is classified as:


NORAD ID: 42714
Int'l Code: 1998-067LV
Perigee: 383.5 km
Apogee: 388.0 km
Inclination: 51.6 °
Period: 92.1 minutes
Semi major axis: 6756 km
RCS: Unknown
Launch date: November 20, 1998
Source: South Korea (SKOR)
Launch site: TYURATAM MISSILE AND SPACE COMPLEX (TTMTR)
Uplink (MHz):
Downlink (MHz): 436.030
Beacon (MHz):
Mode: 1200bps BPSK
Call sign: D80LW
Status: Active

aabbcc
Your satellite tracking list
Your tracking list is empty




NASA's NSSDC Master Catalog

Two Line Element Set (TLE):
1 42714U 98067LV  17324.22205513  .00025365  00000-0  27742-3 0  9991
2 42714  51.6366 335.1971 0003365  77.5265 282.6106 15.63135948 28959
Source of the keplerian elements: AFSPC